Precipitable_Water
1.10 1.08 1.09 1.09 1.18 1.19 1.19 1.06 1.11 1.06 0.90 0.88 0.94 0.93 0.95 0.88 0.87 0.91 0.95 0.94 0.91 0.90
1.08 1.11 1.11 1.11 1.12 1.07 1.02 1.05 1.02 0.97 0.94 0.96 0.93 0.94 0.99 0.98 0.96 1.00 1.02 1.00 0.94 0.82
1.10 1.09 1.14 1.06 1.10 1.08 1.09 1.07 1.09 1.06 1.01 0.99 1.02 1.05 1.07 1.07 1.08 1.04 0.94 0.81 0.74 0.70
1.09 1.09 1.11 1.06 1.01 0.99 0.99 0.98 0.98 1.06 1.09 1.10 1.12 1.10 1.07 1.01 0.88 0.76 0.72 0.69 0.64 0.61
1.11 1.09 1.04 1.03 1.01 0.99 0.99 1.02 1.06 1.10 1.10 1.08 1.07 1.03 0.84 0.75 0.71 0.66 0.62 0.60 0.58 0.56
1.06 1.05 1.03 1.05 1.11 1.09 1.08 1.11 1.12 1.09 1.03 0.96 0.86 0.77 0.73 0.68 0.63 0.61 0.59 0.56 0.55 0.55
1.10 1.13 1.15 1.13 1.11 1.09 1.09 1.02 0.98 0.94 0.88 0.82 0.77 0.72 0.69 0.65 0.61 0.54 0.54 0.56 0.57 0.57
1.05 1.05 1.05 1.03 1.01 0.98 0.93 0.90 0.88 0.83 0.80 0.77 0.73 0.69 0.64 0.58 0.53 0.55 0.56 0.57 0.58 0.58
0.90 0.90 0.89 0.88 0.86 0.86 0.85 0.84 0.82 0.79 0.75 0.69 0.66 0.62 0.57 0.56 0.57 0.57 0.57 0.58 0.59 0.59
0.80 0.80 0.81 0.82 0.82 0.80 0.78 0.76 0.73 0.70 0.67 0.64 0.59 0.58 0.59 0.61 0.60 0.61 0.62 0.62 0.60 0.58
0.68 0.69 0.71 0.72 0.71 0.70 0.70 0.68 0.67 0.66 0.63 0.59 0.60 0.63 0.65 0.66 0.66 0.66 0.64 0.62 0.59 0.55
0.67 0.67 0.69 0.69 0.69 0.70 0.70 0.69 0.67 0.64 0.63 0.64 0.65 0.67 0.68 0.69 0.67 0.65 0.63 0.60 0.57 0.55
0.74 0.73 0.72 0.72 0.72 0.72 0.72 0.68 0.65 0.65 0.66 0.67 0.66 0.68 0.67 0.67 0.67 0.63 0.59 0.57 0.55 0.51
0.75 0.74 0.73 0.72 0.72 0.70 0.67 0.66 0.65 0.65 0.66 0.66 0.66 0.68 0.72 0.69 0.66 0.63 0.54 0.49 0.44 0.41
Wind_Speed
30 30 30 28 28 28 27 25 26 27 27 27 27 27 28 29 29 30 30 31 28 28
28 29 29 29 27 27 28 29 28 28 28 28 28 28 28 29 29 30 30 27 26 26
28 28 28 28 29 29 28 29 29 27 27 26 27 28 28 26 27 27 26 26 27 27
26 26 26 26 27 27 26 26 26 27 27 27 27 27 27 27 27 26 27 27 27 28
25 26 27 27 26 26 26 28 28 28 28 27 28 28 28 28 28 27 28 28 28 29
26 28 28 28 29 29 28 28 28 27 27 27 27 28 28 28 28 29 29 29 30 31
25 26 26 27 28 28 28 26 27 27 28 28 29 29 28 28 28 29 29 30 31 32
22 23 24 25 26 27 27 28 29 29 29 29 28 28 28 28 29 29 30 31 32 33
20 21 22 23 24 25 26 26 27 27 28 28 28 28 28 28 29 30 31 33 34 34
17 19 20 21 22 23 24 25 25 26 26 26 27 27 28 29 30 31 32 34 34 35
16 18 19 20 21 22 22 23 24 25 26 27 28 28 29 30 31 32 34 35 36 36
18 19 20 21 22 23 24 25 25 26 27 28 29 30 31 32 33 34 36 36 37 37
20 21 22 23 24 24 25 26 27 27 28 29 30 31 32 33 35 36 37 37 37 38
22 23 23 24 25 26 26 27 27 28 29 30 31 33 35 36 36 37 37 37 37 38
Wind_Direction
231 237 237 243 247 247 244 240 246 250 254 258 256 261 261 267 270 274 274 279 274 273
233 235 240 244 244 244 247 250 250 255 256 259 260 261 266 268 271 273 274 271 272 272
236 238 241 244 246 248 248 251 253 254 255 258 260 263 267 268 270 270 270 270 271 273
235 239 242 243 246 246 248 247 249 255 257 259 260 263 267 268 268 268 269 271 272 274
240 242 243 243 246 247 248 252 255 257 258 260 259 263 265 266 268 269 269 271 273 275
243 244 246 247 250 250 253 258 253 254 258 261 263 264 265 266 267 268 270 272 273 276
245 247 246 249 250 251 252 254 252 257 260 263 263 264 265 266 267 269 271 273 276 279
247 248 249 250 251 252 253 255 257 258 261 262 263 264 265 266 268 270 273 276 279 281
249 250 251 252 252 253 254 255 256 258 259 261 262 264 265 267 270 273 276 278 281 283
254 254 254 254 254 254 255 256 258 259 260 261 263 265 267 269 273 276 278 280 283 285
258 257 256 256 256 257 257 258 259 260 262 264 266 268 270 272 275 278 280 282 284 285
262 261 260 260 260 260 261 262 263 264 264 266 269 271 272 274 277 279 282 283 285 286
266 264 263 263 263 264 265 265 265 266 267 268 270 273 275 277 280 281 283 285 286 286
270 268 267 266 267 266 267 267 268 268 270 272 274 276 279 280 281 283 284 285 287 288